Location: Walgrove Observatory
(39.4553°N, 76.8212°W)
Time: 05:33:17
(UTC-04:00)

Hubble Space Telescope - Visible Passes

Search period start: 25 March 2019 00:00
Search period end: 04 April 2019 00:00
Orbit: 537 x 540 km, 28.5° (Epoch: 24 March)

Date Brightness Start Highest point End Pass type
(mag) Time Alt. Az. Time Alt. Az. Time Alt. Az.
25 Mar 2.8 20:51:49 10° SSW 20:53:49 14° S 20:53:49 14° S visible
26 Mar 2.7 20:40:59 10° SSW 20:43:28 16° S 20:44:06 15° SSE visible
27 Mar 2.7 20:30:13 10° SW 20:32:53 17° S 20:34:20 14° SSE visible
28 Mar 2.7 20:19:31 10° SW 20:22:17 17° S 20:24:32 12° SE visible
29 Mar 2.7 20:08:53 10° SW 20:11:41 18° S 20:14:29 10° SE visible
30 Mar 2.7 19:58:18 10° SW 20:01:06 18° S 20:03:54 10° SE visible
30 Mar 3.4 21:39:52 10° SW 21:40:11 11° SW 21:40:11 11° SW visible
31 Mar 3.4 21:30:02 10° SSW 21:30:20 10° SSW 21:30:20 10° SSW visible
